"TOA5","AWS1","CR1000","7964","CR1000.Std.14","CPU:AWS1_114.CR1","64363","TBL110"
"TIMESTAMP","RECORD","Wind_spd_WVc(1)","Wind_spd_WVc(2)","Air_Temp_Avg","Humidity_Avg","SW_upper_Wm2_Avg","Rain_Tot","Press_Avg","Issui_Tot","Depth_cm","SR50A_Raw","Quality","Ground_Temp_Avg(1)","Ground_Temp_Avg(2)","SW_lower_Wm2_Avg","Albedo_Avg","SWC_per(1)","SWC_per(2)","Period(1)","Period(2)"
"TS","RN","","","","","","","","","","","","","","","","","","",""
"","","WVc","WVc","Avg","Avg","Avg","Tot","Avg","Tot","Smp","Smp","Smp","Avg","Avg","Avg","Avg","Smp","Smp","Smp","Smp"
"2017-11-04 00:00:00",312973,0,0,7.867,85.5,0,0,865.6328,0,5.825,3.08,303,7.531,8.56,0.4094103,0,50.94,58.15,33.53,35.25
"2017-11-04 00:10:00",312974,0.001,34.79,7.607,87.7,0.4206783,0,865.4471,0,-33.85,3.468,199,7.531,8.58,0.3297982,0.41,50.94,58.09,33.53,35.24
"2017-11-04 00:20:00",312975,0.219,65.05,8.05,86,0.3105947,0,865.5317,0,5.035,3.084,310,7.517,8.63,0.6027366,0.573,50.94,58.09,33.53,35.24
"2017-11-04 00:30:00",312976,0.15,86.6,8.22,84.7,0,0,865.6914,0,4.324,3.091,286,7.515,8.63,0.3146379,0,50.88,58.09,33.52,35.24
"2017-11-04 00:40:00",312977,0.236,46.38,7.962,84.5,0,0,865.4529,0,1.324,3.122,211,7.517,8.64,0,0,50.94,58.09,33.53,35.24
"2017-11-04 00:50:00",312978,0.057,296.1,7.926,80.6,0,0,865.5449,0,3.255,3.102,259,7.521,8.63,0.09856173,0,50.94,58.09,33.53,35.24
"2017-11-04 01:00:00",312979,0.01,102.9,7.825,80.2,0,0,865.3889,0,2.306,3.114,239,7.525,8.62,0.03032669,0,50.94,58.09,33.53,35.24
"2017-11-04 01:10:00",312980,0.024,155.6,7.469,82.2,0,0,865.2452,0,0.146,3.137,205,7.538,8.57,0,0,50.88,58.09,33.52,35.24
"2017-11-04 01:20:00",312981,0.016,155.5,7.233,83,0,0,865.1322,0,-0.741,3.146,204,7.555,8.54,0,0,50.88,58.09,33.52,35.24
"2017-11-04 01:30:00",312982,0.1,154.7,6.819,85.5,0,0,864.9644,0,-0.117,3.143,200,7.558,8.53,0,0,50.94,58.09,33.53,35.24
"2017-11-04 01:40:00",312983,0.017,170.2,6.71,85.8,0,0,864.9529,0,1.857,3.123,261,7.556,8.49,0,0,50.94,58.09,33.53,35.24
"2017-11-04 01:50:00",312984,0.079,175.5,6.354,86.9,0,0,864.9257,0,3.668,3.108,332,7.554,8.47,0,0,50.94,58.09,33.53,35.24
"2017-11-04 02:00:00",312985,0.211,197.6,6.315,86.1,0,0,864.949,0,3.818,3.107,279,7.531,8.47,0,0,50.94,58.09,33.53,35.24
"2017-11-04 02:10:00",312986,0.11,197.5,6.255,85.3,0,0,864.9454,0,0.027,3.144,219,7.484,8.47,0,0,50.94,58.09,33.53,35.24
"2017-11-04 02:20:00",312987,0.125,197.5,6.041,85.4,0,0,864.9374,0,2.12,3.125,243,7.462,8.47,0,0,50.88,58.09,33.52,35.24
"2017-11-04 02:30:00",312988,0.438,196.1,5.762,85.3,0,0,864.7186,0,3.152,3.116,261,7.435,8.49,0,0,50.88,58.09,33.52,35.24
"2017-11-04 02:40:00",312989,0.233,198.8,5.844,82.8,0,0,864.6433,0,2.57,3.122,261,7.431,8.51,0.1250976,0,50.88,58.09,33.52,35.24
"2017-11-04 02:50:00",312990,0.38,192.8,5.634,84.3,0,0,864.5023,0,2.519,3.123,251,7.429,8.52,0,0,50.88,58.09,33.52,35.24
"2017-11-04 03:00:00",312991,0.079,192,5.712,84.1,0,0,864.4686,0,2.494,3.123,262,7.429,8.53,0.163006,0,50.88,58.09,33.52,35.24
"2017-11-04 03:10:00",312992,0,0,5.502,85.7,0,0,864.5844,0,3.476,3.114,274,7.436,8.55,0,0,50.88,58.09,33.52,35.24
"2017-11-04 03:20:00",312993,0.112,191.9,5.21,87.6,0,0,864.6393,0,2.687,3.124,294,7.477,8.55,0,0,50.94,58.09,33.53,35.24
"2017-11-04 03:30:00",312994,0.046,192.2,5.412,87.9,0,0,864.4938,0,3.09,3.12,284,7.511,8.55,0.4056195,0,50.94,58.09,33.53,35.24
"2017-11-04 03:40:00",312995,0.213,191.7,5.074,88.6,0,0,864.4643,0,3.445,3.116,309,7.514,8.55,0.0416992,0,50.88,58.09,33.52,35.24
"2017-11-04 03:50:00",312996,0.176,192,5.453,88.4,0,0,864.4812,0,0.724,3.141,222,7.514,8.55,0.5762071,0,50.88,58.09,33.52,35.24
"2017-11-04 04:00:00",312997,0.215,191.6,5.48,88.2,0,0,864.4412,0,1.098,3.139,238,7.514,8.55,0.3866653,0,50.88,58.09,33.52,35.24
"2017-11-04 04:10:00",312998,0.317,188.2,5.634,90.9,0,0,864.3969,0,0.833,3.137,226,7.513,8.55,0.6065338,0,50.88,58.09,33.52,35.24
"2017-11-04 04:20:00",312999,0.019,147.7,6.454,88.2,0,0,864.359,0,1.14,3.133,243,7.507,8.54,0.8415657,0,50.88,58.03,33.52,35.22
"2017-11-04 04:30:00",313000,0.046,147.7,6.478,87.6,0,0,864.4243,0,-0.17,3.144,205,7.477,8.54,0.7278406,0,50.88,58.09,33.52,35.24
"2017-11-04 04:40:00",313001,0.014,147.7,6.482,86.8,0,0,864.3695,0,0.134,3.141,216,7.476,8.5,0.5572529,0,50.88,58.03,33.52,35.22
"2017-11-04 04:50:00",313002,0.129,100.1,6.658,86,0,0,864.3,0,0.947,3.132,223,7.481,8.47,0.7278406,0,50.88,58.03,33.52,35.22
"2017-11-04 05:00:00",313003,0.206,116,6.826,84.6,0.03538464,0,864.4138,0,-0.088,3.141,233,7.491,8.47,0.788494,0.53,50.88,58.03,33.52,35.22
"2017-11-04 05:10:00",313004,0.341,72.53,7.051,83,0.3381199,0,864.359,0,1.917,3.12,275,7.46,8.47,0.5345079,1.342,50.88,58.03,33.52,35.22
"2017-11-04 05:20:00",313005,0.096,78.36,7.194,82.2,0.1336753,0,864.2768,0,0.195,3.137,235,7.454,8.47,0.2236593,0.354,50.88,58.03,33.52,35.22
"2017-11-04 05:30:00",313006,0.055,48.39,7.262,81.4,0,0,864.2115,0,0.652,3.132,245,7.447,8.48,0.3487569,0,50.88,58.03,33.52,35.22
"2017-11-04 05:40:00",313007,0,0,7.171,83.2,0,0,864.2178,0,-1.555,3.155,202,7.426,8.49,0.1137251,0,50.88,58.03,33.52,35.22
"2017-11-04 05:50:00",313008,0,0,6.928,86.3,0,0,864.2169,0,-0.216,3.143,236,7.433,8.51,0,0,50.88,58.03,33.52,35.22
"2017-11-04 06:00:00",313009,0.065,16.71,6.677,88.9,0,0,864.4514,0,-1.611,3.158,200,7.416,8.49,0,0,50.88,58.03,33.52,35.22
"2017-11-04 06:10:00",313010,0,0,6.575,90.3,0,0,864.416,0,-0.222,3.145,236,7.411,8.5,0,0,50.83,58.03,33.5,35.22
"2017-11-04 06:20:00",313011,0.001,19.74,6.487,90.8,0,0,864.4055,0,-1.589,3.159,203,7.396,8.49,0,0,50.88,58.03,33.52,35.22
"2017-11-04 06:30:00",313012,0,0,6.376,91.6,0,0,864.4119,0,-1.212,3.156,214,7.393,8.47,0,0,50.88,58.03,33.52,35.22
"2017-11-04 06:40:00",313013,0,0,6.41,91.7,0,0,864.411,0,-0.651,3.149,236,7.391,8.47,0.1099343,0,50.88,58.03,33.52,35.22
"2017-11-04 06:50:00",313014,0.013,122.2,6.378,91.9,0.3027353,0,864.3979,0,6.726,3.078,285,7.398,8.47,0.08339839,0.033,50.88,58.03,33.52,35.22
"2017-11-04 07:00:00",313015,0.074,41.68,6.144,93.8,2.976242,0,864.4058,0,10.79,3.039,244,7.391,8.48,0.4435278,0.161,50.88,58.03,33.52,35.22
"2017-11-04 07:10:00",313016,0.009,332.5,5.932,96.3,6.475389,0,864.3978,0,10.84,3.039,243,7.431,8.47,0.7354223,0.112,50.88,58.03,33.52,35.22
"2017-11-04 07:20:00",313017,0,0,5.974,99.5,9.601032,0,864.5166,0,1.995,3.126,256,7.431,8.47,1.250976,0.13,50.88,58.03,33.52,35.22
"2017-11-04 07:30:00",313018,0,0,6.05,100,7.764963,0,864.6401,0,1.44,3.131,245,7.472,8.47,0.9439183,0.122,50.88,58.03,33.52,35.22
"2017-11-04 07:40:00",313019,0,0,6.104,100,8.240689,0,864.7092,0,7.964,3.066,289,7.493,8.47,1.046271,0.126,50.88,58.03,33.52,35.22
"2017-11-04 07:50:00",313020,0,0,6.189,100,13.75676,0.5,864.909,0,8.02,3.065,283,7.503,8.47,1.747576,0.127,50.83,58.03,33.5,35.22
"2017-11-04 08:00:00",313021,0,0,6.243,100,11.97967,0,864.9047,0,9.36,3.052,245,7.482,8.47,1.565615,0.131,50.83,58.03,33.5,35.22
"2017-11-04 08:10:00",313022,0.133,137.9,6.153,100,31.99951,0,864.6625,0,8.21,3.064,254,7.472,8.47,4.086522,0.129,50.88,58.03,33.52,35.22
"2017-11-04 08:20:00",313023,0.057,135.9,6.143,100,59.93372,0,864.6895,0,7.511,3.07,248,7.457,8.47,7.270824,0.121,50.83,58.03,33.5,35.22
"2017-11-04 08:30:00",313024,0.023,309.5,6.397,100,39.66225,0,864.6561,0,7.266,3.071,248,7.429,8.47,4.636193,0.116,50.83,58.03,33.5,35.22
"2017-11-04 08:40:00",313025,0.171,296.4,6.249,100,12.86035,0,864.6589,0,6.24,3.084,250,7.429,8.47,1.141042,0.088,50.88,58.03,33.52,35.22
"2017-11-04 08:50:00",313026,0.493,293.4,5.911,100,19.8036,0.5,864.6857,0,13.92,3.009,266,7.429,8.47,2.126659,0.1,50.88,58.03,33.52,35.22
"2017-11-04 09:00:00",313027,0.762,308,5.725,100,42.24926,0,864.8273,0,-26.1,3.406,189,7.429,8.47,4.738545,0.112,50.83,58.03,33.5,35.22
"2017-11-04 09:10:00",313028,1.304,293.6,5.548,100,46.42072,0.5,864.9149,0,-26.6,3.412,199,7.429,8.47,5.405733,0.116,50.83,57.97,33.5,35.21
"2017-11-04 09:20:00",313029,0.268,293.7,5.473,100,46.30277,0,865.0829,0,-26.19,3.409,242,7.429,8.47,5.364034,0.116,50.88,57.97,33.52,35.21
"2017-11-04 09:30:00",313030,0.374,315.6,5.158,100,38.94276,0,865.1713,0,-28.3,3.431,279,7.429,8.48,4.476977,0.115,50.83,57.97,33.5,35.21
"2017-11-04 09:40:00",313031,0.409,187.4,5.113,99.5,47.48225,0,865.1843,0,-26.58,3.415,198,7.429,8.49,5.485341,0.116,50.88,57.97,33.52,35.21
"2017-11-04 09:50:00",313032,0.571,168.8,4.976,98.3,69.02364,0,865.2028,0,-25.29,3.402,199,7.429,8.5,8.298141,0.12,50.88,57.97,33.52,35.21
"2017-11-04 10:00:00",313033,0.668,179.5,4.809,95,39.14721,0,865.2616,0,-25.36,3.404,256,7.431,8.51,4.492141,0.115,50.83,57.97,33.5,35.21
"2017-11-04 10:10:00",313034,0.372,174.7,4.818,94.9,30.70601,0.5,865.2995,0,-26.05,3.41,194,7.435,8.52,3.726392,0.121,50.88,57.97,33.52,35.21
"2017-11-04 10:20:00",313035,0.793,177,4.812,94.7,47.9108,0,865.2226,0,2.682,3.126,265,7.483,8.54,5.701418,0.119,50.83,57.97,33.5,35.21
"2017-11-04 10:30:00",313036,0.335,167.6,4.787,95.3,68.19014,0,865.2228,0,2.883,3.124,227,7.507,8.54,8.093435,0.119,50.83,57.97,33.5,35.21
"2017-11-04 10:40:00",313037,0.478,207.2,4.819,96,75.45185,0,865.2523,0,3.743,3.115,232,7.549,8.54,8.912256,0.117,50.88,57.97,33.52,35.21
"2017-11-04 10:50:00",313038,0.597,169,4.735,95.1,117.4377,0.5,865.3198,0,2.351,3.13,278,7.556,8.53,13.62806,0.115,50.83,57.97,33.5,35.21
"2017-11-04 11:00:00",313039,1.123,178.8,4.614,94.9,115.3028,0,865.3598,0,2.578,3.128,282,7.552,8.52,13.25656,0.115,50.83,57.97,33.5,35.21
"2017-11-04 11:10:00",313040,0.572,167.8,4.606,94.4,112.1457,0,865.3219,0,3.284,3.121,318,7.527,8.52,12.93054,0.115,50.88,57.97,33.52,35.21
"2017-11-04 11:20:00",313041,0.514,119,4.532,92.5,89.06707,0,865.2608,0,3.385,3.12,292,7.516,8.52,9.746241,0.109,50.83,57.97,33.5,35.21
"2017-11-04 11:30:00",313042,0.533,160.6,4.446,92.8,49.96704,0.5,865.1913,0,2.475,3.13,278,7.516,8.54,5.561157,0.111,50.83,57.97,33.5,35.21
"2017-11-04 11:40:00",313043,0.652,185.3,4.349,94.2,24.20309,0,864.9827,0,1.919,3.136,266,7.516,8.54,2.759729,0.115,50.83,57.97,33.5,35.21
"2017-11-04 11:50:00",313044,0.597,283.8,4.32,93.7,30.63523,0,864.9553,0,2.374,3.131,244,7.516,8.55,3.866653,0.126,50.88,57.97,33.52,35.21
"2017-11-04 12:00:00",313045,0.479,159.1,4.423,93.4,45.25303,0,864.9174,0,2.249,3.132,245,7.536,8.55,5.564948,0.124,50.88,57.97,33.52,35.21
"2017-11-04 12:10:00",313046,0.668,177.7,4.402,95.3,46.58191,0,864.8246,0,0.356,3.152,229,7.602,8.55,5.379197,0.116,50.83,57.97,33.5,35.21
"2017-11-04 12:20:00",313047,0.936,314,4.356,94.1,35.58122,0,864.8204,0,-31.7,3.469,191,7.646,8.55,4.340508,0.122,50.88,57.97,33.52,35.21
"2017-11-04 12:30:00",313048,0.797,350.2,4.617,89.9,63.3621,0,864.9026,0,0.411,3.149,205,7.686,8.55,7.983502,0.126,50.88,57.97,33.52,35.21
"2017-11-04 12:40:00",313049,0.732,324.9,4.597,89.5,60.03201,0,864.9511,0,12.06,3.034,298,7.682,8.55,7.460366,0.124,50.88,57.97,33.52,35.21
"2017-11-04 12:50:00",313050,1.02,336.8,4.636,88.5,52.55799,0,864.9658,0,5.405,3.099,239,7.658,8.55,6.819715,0.13,50.88,57.97,33.52,35.21
"2017-11-04 13:00:00",313051,0.666,316.8,4.792,87.7,59.52483,0,864.97,0,5.683,3.096,346,7.617,8.55,7.816705,0.131,50.88,57.97,33.52,35.21
"2017-11-04 13:10:00",313052,0.366,275.8,4.694,91,62.70552,0,864.97,0,13.17,3.023,352,7.603,8.55,7.585464,0.121,50.88,57.97,33.52,35.21
"2017-11-04 13:20:00",313053,0.532,294.9,4.495,92.7,31.35079,0.5,864.9743,0,-29.12,3.444,195,7.604,8.55,3.57855,0.114,50.94,58.03,33.53,35.22
"2017-11-04 13:30:00",313054,1.249,282.1,4.127,95,22.85061,0.5,865.3008,0,5.178,3.109,221,7.604,8.55,2.361691,0.103,50.94,57.97,33.53,35.21
"2017-11-04 13:40:00",313055,1.461,311,3.05,94.7,33.58396,0.5,865.6843,0,7.001,3.095,220,7.603,8.55,3.26391,0.096,50.94,57.97,33.53,35.21
"2017-11-04 13:50:00",313056,2.245,311.7,2.391,95,39.35558,0,865.954,0,5.94,3.108,230,7.603,8.55,4.2609,0.108,50.99,58.03,33.54,35.22
"2017-11-04 14:00:00",313057,1.092,276.5,2.183,96.3,36.3125,0,866.0193,0,13.04,3.038,312,7.614,8.55,4.2609,0.117,50.99,58.03,33.54,35.22
"2017-11-04 14:10:00",313058,1.226,274.6,2.088,97.7,76.58566,0,866.0656,0,5.303,3.115,213,7.622,8.55,9.155048,0.119,51.05,57.97,33.56,35.21
"2017-11-04 14:20:00",313059,1.074,167.6,2.289,96.1,118.4234,0,866.0129,0,-28.7,3.452,193,7.639,8.57,14.50126,0.122,51.05,57.97,33.56,35.21
"2017-11-04 14:30:00",313060,0.949,192,2.624,94.9,116.9623,0,866.1605,0,7.302,3.092,250,7.645,8.58,13.94082,0.119,51.1,58.03,33.57,35.22
"2017-11-04 14:40:00",313061,1.044,162.9,2.635,96.1,72.46975,0,866.2005,0,6.944,3.096,236,7.655,8.6,8.546175,0.118,51.16,58.03,33.58,35.22
"2017-11-04 14:50:00",313062,1.393,170.9,2.552,95.9,99.85007,0,865.9855,0,10.91,3.056,361,7.664,8.61,12.40637,0.124,51.27,58.03,33.61,35.22
"2017-11-04 15:00:00",313063,0.494,226.4,2.821,94.9,90.69355,0,865.9982,0,10.81,3.056,360,7.689,8.62,11.08714,0.122,51.27,58.03,33.61,35.22
"2017-11-04 15:10:00",313064,0.496,261.5,2.939,95,135.6093,0,866.138,0,5.585,3.107,229,7.711,8.62,17.16933,0.127,51.33,58.03,33.62,35.22
"2017-11-04 15:20:00",313065,0.044,298.6,3.221,97,85.44887,0,866.2335,0,4.988,3.111,229,7.763,8.62,9.832224,0.113,51.38,58.09,33.64,35.24
"2017-11-04 15:30:00",313066,0.353,261.6,3.155,98.6,84.79688,0,866.2351,0,7.253,3.09,272,7.802,8.62,10.70016,0.125,51.44,58.09,33.65,35.24
"2017-11-04 15:40:00",313067,0.412,274.9,2.911,100,52.99679,0,866.3735,0,7.425,3.091,264,7.821,8.6,5.967935,0.111,51.44,58.09,33.65,35.24
"2017-11-04 15:50:00",313068,0.548,267.2,2.288,100,36.63721,0,866.504,0,6.238,3.106,336,7.801,8.6,4.094801,0.111,51.49,58.09,33.66,35.24
"2017-11-04 16:00:00",313069,0.38,319.3,1.987,100,18.24143,0,866.7421,0,5.439,3.115,220,7.777,8.59,1.880525,0.103,51.55,58.15,33.68,35.25
"2017-11-04 16:10:00",313070,0.709,264.6,1.774,100,14.80504,0,866.9528,0,4.924,3.121,217,7.756,8.6,1.69479,0.112,51.49,58.15,33.66,35.25
"2017-11-04 16:20:00",313071,0.452,38.31,1.729,100,15.96168,0,867.0812,0,-29.61,3.465,176,7.757,8.61,2.032296,0.123,51.55,58.15,33.68,35.25
"2017-11-04 16:30:00",313072,1.085,344.1,1.592,100,12.56006,0,867.2582,0,6.827,3.103,243,7.74,8.61,1.728958,0.137,51.55,58.21,33.68,35.26
"2017-11-04 16:40:00",313073,0.811,307,1.505,100,5.89877,0,867.2528,0,7.918,3.093,278,7.741,8.62,0.6976704,0.115,51.6,58.21,33.69,35.26
"2017-11-04 16:50:00",313074,0.69,277.3,1.46,100,1.875928,0,867.3353,0,12.02,3.052,428,7.736,8.63,0.3412765,0.209,51.66,58.21,33.7,35.26
"2017-11-04 17:00:00",313075,0.754,276.8,1.362,100,0.4444161,0,867.493,0,5.4,3.119,232,7.74,8.65,0.08721695,0.129,51.6,58.26,33.69,35.28
"2017-11-04 17:10:00",313076,0.752,298.8,1.171,100,0.03146353,0,867.6097,0,5.45,3.119,208,7.726,8.66,0.07963422,0.112,51.6,58.26,33.69,35.28
"2017-11-04 17:20:00",313077,0.596,216.6,1.08,100,0,0,867.8051,0,10.26,3.072,376,7.714,8.68,0.03792125,0,51.6,58.26,33.69,35.28
"2017-11-04 17:30:00",313078,0.895,266,1.016,99.5,0,0,867.8265,0,10.03,3.074,319,7.754,8.69,0.291994,0,51.6,58.26,33.69,35.28
"2017-11-04 17:40:00",313079,0.56,227.8,0.922,96.5,0,0,867.9387,0,8.2,3.093,260,7.779,8.68,0.5877802,0,51.66,58.26,33.7,35.28
"2017-11-04 17:50:00",313080,0.252,265,0.823,96.1,0,0,868.0421,0,8.27,3.093,278,7.779,8.65,1.107302,0,51.66,58.32,33.7,35.29
"2017-11-04 18:00:00",313081,0.417,250.5,0.679,96.7,0,0,868.0873,0,6.144,3.115,230,7.779,8.6,1.008707,0,51.66,58.32,33.7,35.29
"2017-11-04 18:10:00",313082,0.21,229.3,0.441,97.7,0,0,868.0624,0,6.693,3.111,232,7.779,8.58,0.9442405,0,51.71,58.32,33.72,35.29
"2017-11-04 18:20:00",313083,0.247,296.2,0.385,99.7,0,0,868.2647,0,6.468,3.113,236,7.779,8.57,0.6294937,0,51.66,58.38,33.7,35.31
"2017-11-04 18:30:00",313084,0.482,293,0.438,100,0,0,868.4122,0,5.892,3.119,228,7.779,8.56,0.6560385,0,51.66,58.38,33.7,35.31
"2017-11-04 18:40:00",313085,0.671,295,0.493,100,0,0,868.4944,0,-26.54,3.442,180,7.751,8.56,0.466432,0,51.66,58.38,33.7,35.31
"2017-11-04 18:50:00",313086,0.434,217.1,0.671,100,0,0,868.4039,0,7.422,3.102,282,7.71,8.56,0.6901677,0,51.66,58.44,33.7,35.32
"2017-11-04 19:00:00",313087,0.673,186,0.715,100,0,0,868.3807,0,-26.35,3.439,188,7.693,8.58,0.701544,0,51.66,58.44,33.7,35.32
"2017-11-04 19:10:00",313088,0.808,176.1,0.688,100,0,0,868.3448,0,6.945,3.107,259,7.7,8.6,0.553651,0,51.71,58.44,33.72,35.32
"2017-11-04 19:20:00",313089,0.484,203.1,0.642,99.3,0,0,868.368,0,6.193,3.115,226,7.728,8.58,0.4247186,0,51.66,58.5,33.7,35.33
"2017-11-04 19:30:00",313090,0.79,274.5,0.666,99.5,0,0,868.5388,0,5.895,3.117,220,7.73,8.58,0.6181172,0,51.71,58.5,33.72,35.33
"2017-11-04 19:40:00",313091,0.733,281.6,0.806,97.5,0,0,868.6251,0,5.797,3.117,219,7.699,8.6,0.6863756,0,51.66,58.5,33.7,35.33
"2017-11-04 19:50:00",313092,0.521,313.5,0.908,95.2,0,0,868.7938,0,7.099,3.104,252,7.693,8.61,0.7811788,0,51.66,58.5,33.7,35.33
"2017-11-04 20:00:00",313093,0.325,247,0.772,96.6,0,0,868.8633,0,5.971,3.116,236,7.692,8.62,0.6825835,0,51.71,58.5,33.72,35.33
"2017-11-04 20:10:00",313094,0.376,294.3,0.773,98.5,0,0,868.9645,0,6.071,3.115,233,7.69,8.63,0.6863756,0,51.66,58.56,33.7,35.35
"2017-11-04 20:20:00",313095,0.313,211.3,0.783,98.4,0,0,869.1057,0,7.023,3.105,242,7.666,8.64,0.6749992,0,51.66,58.56,33.7,35.35
"2017-11-04 20:30:00",313096,0.393,202.7,0.813,97.1,0,0,869.1077,0,5.745,3.118,230,7.607,8.65,0.6825835,0,51.66,58.5,33.7,35.33
"2017-11-04 20:40:00",313097,0.353,226.3,0.928,95.2,0,0,869.1162,0,5.947,3.115,241,7.617,8.68,0.8380607,0,51.66,58.56,33.7,35.35
"2017-11-04 20:50:00",313098,0.362,222.9,1.033,95.5,0,0,869.2953,0,6.952,3.104,270,7.646,8.69,1.001122,0,51.71,58.56,33.72,35.35
"2017-11-04 21:00:00",313099,0.756,279.4,0.98,95.2,0,0,869.4134,0,4.895,3.126,204,7.639,8.71,0.8228922,0,51.66,58.56,33.7,35.35
"2017-11-04 21:10:00",313100,0.923,287.6,0.896,95.6,0,0,869.5925,0,-25.81,3.432,193,7.614,8.7,0.6029487,0,51.66,58.61,33.7,35.36
"2017-11-04 21:20:00",313101,1.042,275.7,0.868,95.6,0,0,869.6241,0,5.745,3.118,204,7.607,8.71,0.2464885,0,51.66,58.61,33.7,35.36
"2017-11-04 21:30:00",313102,0.57,248.4,0.909,96.1,0,0,869.7759,0,5.448,3.12,224,7.605,8.71,0.3109547,0,51.66,58.56,33.7,35.35
"2017-11-04 21:40:00",313103,0.569,222,0.794,95.8,0,0,869.7527,0,5.695,3.119,220,7.605,8.71,0.2806177,0,51.66,58.56,33.7,35.35
"2017-11-04 21:50:00",313104,0.486,226.7,0.709,97.2,0,0,869.66,0,5.896,3.117,227,7.604,8.72,0.3867973,0,51.66,58.61,33.7,35.36
"2017-11-04 22:00:00",313105,0.523,200.4,0.551,97,0,0,869.681,0,5.892,3.119,226,7.588,8.71,0.1554773,0,51.66,58.61,33.7,35.36
"2017-11-04 22:10:00",313106,0.585,217,0.388,96.4,0,0,869.7106,0,6.017,3.118,210,7.626,8.65,0.00379213,0,51.66,58.61,33.7,35.36
"2017-11-04 22:20:00",313107,0.475,235.8,0.368,94.7,0,0,869.6305,0,11.65,3.061,341,7.576,8.62,0,0,51.66,58.61,33.7,35.36
"2017-11-04 22:30:00",313108,0.436,264.7,0.335,92.6,0,0,869.7717,0,11.45,3.063,258,7.523,8.59,0,0,51.66,58.61,33.7,35.36
"2017-11-04 22:40:00",313109,0.716,284.8,0.465,89.1,0,0,869.8771,0,11.62,3.061,250,7.518,8.56,0,0,51.71,58.61,33.72,35.36
"2017-11-04 22:50:00",313110,0.365,244.5,0.38,88.9,0,0,870.0036,0,9.59,3.084,265,7.54,8.56,0,0,51.66,58.61,33.7,35.36
"2017-11-04 23:00:00",313111,0.174,187.4,-0.043,92.9,0,0,869.9256,0,8.41,3.097,316,7.531,8.57,0.4436792,0,51.66,58.61,33.7,35.36
"2017-11-04 23:10:00",313112,0.274,234.9,-0.234,95.1,0,0,869.8708,0,12.64,3.054,315,7.508,8.6,2.426972,0,51.71,58.67,33.72,35.37
"2017-11-04 23:20:00",313113,0.612,191.6,-0.391,95.8,0,0,869.8665,0,12.38,3.058,324,7.471,8.61,2.548387,0,51.6,58.67,33.69,35.37
"2017-11-04 23:30:00",313114,0.754,208.5,-0.258,95.5,0,0,869.8623,0,11.7,3.064,306,7.451,8.62,2.192008,0,51.66,58.67,33.7,35.37
"2017-11-04 23:40:00",313115,0.599,224,-0.168,92.5,0,0,869.8644,0,11.47,3.066,357,7.464,8.63,1.262929,0,51.66,58.67,33.7,35.37
"2017-11-04 23:50:00",313116,0.583,223.4,-0.061,88.7,0,0,869.8771,0,11.33,3.067,351,7.501,8.65,1.342631,0,51.66,58.67,33.7,35.37
